Location: Meriden
(44.0740°N, 93.3870°W)
Time: 20:50:50
(UTC-05:00)

Amateur Radio Satellites - All Passes

Search period start: 01 September 2014 20:20
Search period end: 02 September 2014 20:20
Location: Meriden, 44.0740°N, 93.3870°W

Satellite Date Start Highest point End Downlink Frequencies (MHz)
Time Altitude Azimuth
STRAND 1 01 Sep 21:06:29 21:11:01 33° 294° (WNW) 21:15:33 ?
UKube-1 01 Sep 21:10:46 21:14:43 35° 69° (ENE) 21:18:41 145.840 MHz, 145.915 MHz
Oscar 11 01 Sep 21:15:02 21:18:35 25° 67° (ENE) 21:22:09 145.825 FM, Beacon 2401.500 USB
HO-68 01 Sep 21:36:44 21:43:51 72° 256° (WSW) 21:51:01 435.675 MHz FM
Saudisat 1A 01 Sep 21:44:47 21:47:48 18° 111° (ESE) 21:50:49 436.775 MHz
FUNcube-1 01 Sep 21:47:07 21:50:19 21° 65° (ENE) 21:53:34 145.950 - 145.970 MHz USB
MaSat-1 01 Sep 22:06:36 22:10:59 39° 54° (NE) 22:14:48 437.345 MHz
KITSAT 1 01 Sep 22:27:44 22:33:59 25° 104° (ESE) 22:40:14 435.175 FM
UKube-1 01 Sep 22:47:35 22:51:00 22° 266° (W) 22:54:26 145.840 MHz, 145.915 MHz
AO-40 01 Sep 22:50:12 04:00:51 35° 156° (SSE) 05:40:25 Beacon 2401.320
Oscar 11 01 Sep 22:50:43 22:54:38 32° 264° (W) 22:58:35 145.825 FM, Beacon 2401.500 USB
FUNcube-1 01 Sep 23:22:36 23:26:29 37° 263° (W) 23:30:29 145.950 - 145.970 MHz USB
Saudisat 1A 01 Sep 23:22:39 23:26:59 54° 309° (NW) 23:31:20 436.775 MHz
HO-68 01 Sep 23:30:08 23:32:46 12° 274° (W) 23:35:26 435.675 MHz FM
MaSat-1 01 Sep 23:44:14 23:47:38 22° 257° (WSW) 23:50:41 437.345 MHz
PCSat 01 Sep 23:52:27 23:54:57 13° 32° (NNE) 23:57:26 145.825 MHz
KITSAT 1 02 Sep 00:20:29 00:28:35 77° 304° (NW) 00:36:43 435.175 FM
Sapphire 02 Sep 01:05:16 01:10:08 32° 47° (NE) 01:14:58 437.095 MHz 1200 baud AX-25 AFSK
Saudisat 1A 02 Sep 01:05:56 01:07:33 12° 330° (NNW) 01:09:10 436.775 MHz
PCSat 02 Sep 01:34:18 01:39:38 54° 54° (NE) 01:44:56 145.825 MHz
Oscar 19 02 Sep 01:40:16 01:43:30 16° 90° (E) 01:46:42 437.125 CW, 437.150 USB
Oscar 10/S400 02 Sep 02:12:08 03:13:06 45° 216° (SW) 09:09:24 145.825 - 145.975 CW/USB, Beacon 145.810 USB
Oscar 16 02 Sep 02:14:28 02:19:13 35° 97° (E) 02:23:55 437.025 USB, Beacon 2401.1428
ITAMSAT 1 02 Sep 02:18:05 02:21:13 16° 90° (E) 02:24:20 435.822 SSB
KITSAT 1 02 Sep 02:18:56 02:25:23 25° 329° (NNW) 02:31:51 435.175 FM
SO-50 02 Sep 02:25:53 02:27:09 11° 107° (ESE) 02:28:26 436.795 FM
Uribyol 2 02 Sep 02:26:52 02:30:44 21° 92° (E) 02:34:34 436.500 FM
JAS-1B 02 Sep 02:32:43 02:37:44 23° 89° (E) 02:42:17 435.800 - 435.900 CW/SSB
AO-27 02 Sep 02:46:45 02:51:17 30° 96° (E) 02:55:47 436.795 MHz FM
Sapphire 02 Sep 02:48:34 02:53:42 44° 247° (WSW) 02:58:49 437.095 MHz 1200 baud AX-25 AFSK
Oscar 19 02 Sep 03:18:09 03:23:19 66° 287° (WNW) 03:28:27 437.125 CW, 437.150 USB
PCSat 02 Sep 03:18:25 03:22:41 24° 252° (WSW) 03:26:56 145.825 MHz
OPAL 02 Sep 03:19:56 03:23:10 17° 57° (ENE) 03:26:27 ?
AO-Echo 02 Sep 03:26:20 03:31:03 77° 103° (ESE) 03:35:46 ?
Gurwin Techsat 1B 02 Sep 03:28:21 03:33:09 33° 96° (E) 03:37:54 435.225 FM
Oscar 16 02 Sep 03:53:55 03:58:30 32° 294° (WNW) 04:03:03 437.025 USB, Beacon 2401.1428
ITAMSAT 1 02 Sep 03:56:03 04:01:12 68° 287° (WNW) 04:06:21 435.822 SSB
SO-50 02 Sep 04:02:29 04:06:58 87° 305° (NW) 04:11:35 436.795 FM
Uribyol 2 02 Sep 04:05:28 04:10:31 53° 290° (WNW) 04:15:33 436.500 FM
UOSAT-12 02 Sep 04:12:01 04:13:10 11° 106° (ESE) 04:14:19 437.025 FM, 437.400 FM
TMSAT-1 02 Sep 04:17:58 04:23:16 69° 102° (ESE) 04:28:32 436.925 FM
KITSAT 1 02 Sep 04:20:02 04:24:16 15° 358° (N) 04:28:29 435.175 FM
Uosat F 02 Sep 04:20:43 04:23:10 14° 89° (E) 04:25:37 435.120 FM
JAS-1B 02 Sep 04:22:27 04:29:03 56° 292° (WNW) 04:34:46 435.800 - 435.900 CW/SSB
AO-27 02 Sep 04:26:06 04:30:50 37° 293° (WNW) 04:35:34 436.795 MHz FM
AO-7 02 Sep 04:33:41 04:40:29 27° 94° (E) 04:47:14 29.400 - 29.500 MHz
OPAL 02 Sep 04:56:24 05:01:27 73° 255° (WSW) 05:06:38 ?
AO-Echo 02 Sep 05:06:57 05:09:13 14° 301° (WNW) 05:11:30 ?
Gurwin Techsat 1B 02 Sep 05:08:20 05:13:05 34° 294° (WNW) 05:17:49 435.225 FM
ITAMSAT 1 02 Sep 05:39:06 05:39:44 10° 306° (NW) 05:40:22 435.822 SSB
SO-50 02 Sep 05:45:19 05:48:14 17° 326° (NW) 05:51:12 436.795 FM
UOSAT-12 02 Sep 05:47:54 05:52:32 88° 124° (SE) 05:57:16 437.025 FM, 437.400 FM
Uosat F 02 Sep 05:57:30 06:02:31 75° 287° (WNW) 06:07:30 435.120 FM
TMSAT-1 02 Sep 05:59:09 06:02:38 18° 300° (WNW) 06:06:08 436.925 FM
Saudisat 1A 02 Sep 06:08:51 06:12:37 26° 43° (NE) 06:16:22 436.775 MHz
JAS-1B 02 Sep 06:16:49 06:17:53 10° 316° (NW) 06:18:57 435.800 - 435.900 CW/SSB
KITSAT 1 02 Sep 06:17:05 06:23:17 23° 29° (NNE) 06:29:27 435.175 FM
AO-7 02 Sep 06:25:40 06:33:54 70° 293° (WNW) 06:42:05 29.400 - 29.500 MHz
RS-15 02 Sep 06:26:27 06:34:45 25° 102° (ESE) 06:42:56 29.354 - 29.394 USB, Beacon 29.352 USB
STRAND 1 02 Sep 06:44:35 06:49:32 55° 71° (ENE) 06:54:30 ?
Hamsat 02 Sep 06:58:34 07:02:51 54° 100° (E) 07:07:04 145.90 MHz
JAS-2 02 Sep 07:13:15 07:18:31 66° 102° (ESE) 07:24:12 435.800 - 435.900 CW/SSB, 435.910 FM
UOSAT-12 02 Sep 07:30:07 07:33:20 18° 324° (NW) 07:36:36 437.025 FM, 437.400 FM
SO-67 02 Sep 07:38:22 07:40:55 19° 94° (E) 07:43:27 435.3500 MHz FM
Uosat F 02 Sep 07:39:14 07:40:26 11° 305° (NW) 07:41:37 435.120 FM
Saudisat 1A 02 Sep 07:48:10 07:52:22 43° 242° (WSW) 07:56:31 436.775 MHz
KITSAT 1 02 Sep 08:12:13 08:20:18 68° 54° (NE) 08:28:19 435.175 FM
AO-7 02 Sep 08:20:09 08:25:16 18° 314° (NW) 08:30:23 29.400 - 29.500 MHz
STRAND 1 02 Sep 08:25:26 08:29:03 19° 268° (W) 08:32:41 ?
RS-15 02 Sep 08:34:35 08:45:41 87° 304° (NW) 08:56:41 29.354 - 29.394 USB, Beacon 29.352 USB
Hamsat 02 Sep 08:35:43 08:38:22 16° 297° (WNW) 08:41:01 145.90 MHz
JAS-2 02 Sep 08:59:44 09:03:13 18° 299° (WNW) 09:06:49 435.800 - 435.900 CW/SSB, 435.910 FM
HO-68 02 Sep 09:03:57 09:09:02 20° 91° (E) 09:14:05 435.675 MHz FM
SO-67 02 Sep 09:11:03 09:13:58 26° 290° (WNW) 09:16:52 435.3500 MHz FM
KITSAT 1 02 Sep 10:08:25 10:15:05 30° 254° (WSW) 10:21:44 435.175 FM
ISS 02 Sep 10:22:10 10:25:26 58° 144° (SE) 10:28:43 145.800 FM
UKube-1 02 Sep 10:33:13 10:37:29 53° 101° (E) 10:41:44 145.840 MHz, 145.915 MHz
Oscar 11 02 Sep 10:36:29 10:40:36 39° 98° (E) 10:44:41 145.825 FM, Beacon 2401.500 USB
RS-15 02 Sep 10:50:00 10:59:41 34° 332° (NNW) 11:09:26 29.354 - 29.394 USB, Beacon 29.352 USB
HO-68 02 Sep 10:50:18 10:57:28 79° 289° (WNW) 11:04:38 435.675 MHz FM
SO-50 02 Sep 10:52:46 10:56:30 22° 40° (NE) 11:00:17 436.795 FM
FUNcube-1 02 Sep 11:09:43 11:13:58 37° 97° (E) 11:18:14 145.950 - 145.970 MHz USB
MaSat-1 02 Sep 11:57:23 12:00:04 15° 100° (E) 12:02:48 437.345 MHz
ISS 02 Sep 11:59:19 12:02:20 31° 342° (NNW) 12:05:21 145.800 FM
UKube-1 02 Sep 12:10:32 12:13:17 17° 298° (WNW) 12:16:01 145.840 MHz, 145.915 MHz
Oscar 11 02 Sep 12:13:14 12:16:32 21° 295° (WNW) 12:19:50 145.825 FM, Beacon 2401.500 USB
SO-50 02 Sep 12:32:44 12:37:30 66° 239° (WSW) 12:42:18 436.795 FM
UOSAT-12 02 Sep 12:36:50 12:40:23 20° 38° (NE) 12:43:54 437.025 FM, 437.400 FM
HO-68 02 Sep 12:39:40 12:44:06 18° 309° (NW) 12:48:32 435.675 MHz FM
FUNcube-1 02 Sep 12:46:30 12:50:10 24° 294° (WNW) 12:53:51 145.950 - 145.970 MHz USB
Oscar 19 02 Sep 12:58:13 13:02:35 28° 65° (ENE) 13:06:59 437.125 CW, 437.150 USB
AO-Echo 02 Sep 13:04:33 13:07:23 16° 61° (ENE) 13:10:12 ?
RS-15 02 Sep 13:07:49 13:16:28 25° 7° (N) 13:25:15 29.354 - 29.394 USB, Beacon 29.352 USB
JAS-1B 02 Sep 13:16:23 13:24:33 35° 61° (ENE) 13:31:51 435.800 - 435.900 CW/SSB
MaSat-1 02 Sep 13:31:23 13:36:21 79° 298° (WNW) 13:41:33 437.345 MHz
Oscar 16 02 Sep 13:32:46 13:37:49 58° 71° (ENE) 13:42:55 437.025 USB, Beacon 2401.1428
ISS 02 Sep 13:37:05 13:39:45 22° 3° (N) 13:42:25 145.800 FM
ITAMSAT 1 02 Sep 13:37:10 13:41:34 29° 65° (ENE) 13:45:58 435.822 SSB
Uribyol 2 02 Sep 13:46:01 13:50:41 36° 67° (ENE) 13:55:23 436.500 FM
AO-7 02 Sep 13:48:41 13:51:06 12° 38° (NE) 13:53:30 29.400 - 29.500 MHz
TMSAT-1 02 Sep 14:02:46 14:06:15 18° 60° (ENE) 14:09:44 436.925 FM
AO-27 02 Sep 14:06:15 14:11:15 53° 70° (ENE) 14:16:17 436.795 MHz FM
UOSAT-12 02 Sep 14:16:19 14:21:04 74° 238° (WSW) 14:25:42 437.025 FM, 437.400 FM
Oscar 19 02 Sep 14:36:56 14:41:46 40° 262° (W) 14:46:38 437.125 CW, 437.150 USB
AO-Echo 02 Sep 14:40:40 14:45:39 71° 258° (WSW) 14:50:30 ?
Gurwin Techsat 1B 02 Sep 14:50:48 14:56:00 60° 72° (ENE) 15:01:15 435.225 FM
JAS-1B 02 Sep 15:04:56 15:14:36 68° 258° (WSW) 15:23:10 435.800 - 435.900 CW/SSB
MaSat-1 02 Sep 15:11:12 15:14:13 16° 318° (NW) 15:17:15 437.345 MHz
ISS 02 Sep 15:13:53 15:17:05 41° 23° (NNE) 15:20:16 145.800 FM
Oscar 16 02 Sep 15:14:00 15:17:33 19° 269° (W) 15:21:08 437.025 USB, Beacon 2401.1428
ITAMSAT 1 02 Sep 15:16:07 15:20:55 38° 262° (W) 15:25:44 435.822 SSB
RS-15 02 Sep 15:21:57 15:32:29 47° 40° (NE) 15:43:19 29.354 - 29.394 USB, Beacon 29.352 USB
Uribyol 2 02 Sep 15:25:43 15:30:12 30° 264° (W) 15:34:43 436.500 FM
AO-7 02 Sep 15:34:02 15:41:45 45° 60° (ENE) 15:49:29 29.400 - 29.500 MHz
Uosat F 02 Sep 15:34:54 15:38:49 24° 63° (ENE) 15:42:45 435.120 FM
TMSAT-1 02 Sep 15:40:21 15:45:37 69° 258° (WSW) 15:50:55 436.925 FM
AO-27 02 Sep 15:47:15 15:51:05 21° 268° (W) 15:54:55 436.795 MHz FM
Sapphire 02 Sep 15:50:08 15:53:51 19° 106° (ESE) 15:57:34 437.095 MHz 1200 baud AX-25 AFSK
PCSat 02 Sep 16:17:50 16:22:42 35° 111° (ESE) 16:27:36 145.825 MHz
Gurwin Techsat 1B 02 Sep 16:32:45 16:36:23 19° 269° (W) 16:40:03 435.225 FM
ISS 02 Sep 16:50:44 16:53:46 33° 221° (SW) 16:56:48 145.800 FM
JAS-1B 02 Sep 17:01:29 17:06:16 15° 275° (W) 17:10:50 435.800 - 435.900 CW/SSB
OPAL 02 Sep 17:05:17 17:09:40 26° 96° (E) 17:13:59 ?
Uosat F 02 Sep 17:12:32 17:17:20 46° 261° (W) 17:22:09 435.120 FM
AO-7 02 Sep 17:26:34 17:34:29 47° 260° (W) 17:42:26 29.400 - 29.500 MHz
JAS-2 02 Sep 17:27:43 17:32:53 33° 67° (ENE) 17:37:39 435.800 - 435.900 CW/SSB, 435.910 FM
Sapphire 02 Sep 17:31:21 17:36:44 66° 304° (WNW) 17:42:09 437.095 MHz 1200 baud AX-25 AFSK
RS-15 02 Sep 17:34:30 17:45:20 63° 244° (WSW) 17:56:38 29.354 - 29.394 USB, Beacon 29.352 USB
Hamsat 02 Sep 17:53:07 17:57:16 46° 72° (ENE) 18:01:27 145.90 MHz
PCSat 02 Sep 18:01:03 18:06:05 38° 310° (NW) 18:11:09 145.825 MHz
OPAL 02 Sep 18:43:45 18:48:41 43° 294° (WNW) 18:53:34 ?
STRAND 1 02 Sep 18:54:54 18:58:03 16° 90° (E) 19:01:10 ?
JAS-2 02 Sep 19:12:30 19:17:58 36° 262° (W) 19:22:59 435.800 - 435.900 CW/SSB, 435.910 FM
Sapphire 02 Sep 19:18:10 19:21:14 15° 325° (NW) 19:24:18 437.095 MHz 1200 baud AX-25 AFSK
Hamsat 02 Sep 19:30:36 19:33:29 17° 269° (W) 19:36:23 145.90 MHz
HO-68 02 Sep 19:35:15 19:40:09 20° 53° (NE) 19:45:03 435.675 MHz FM
SO-67 02 Sep 19:44:44 19:48:10 63° 259° (W) 19:51:37 435.3500 MHz FM
PCSat 02 Sep 19:50:37 19:51:08 10° 333° (NNW) 19:51:38 145.825 MHz
RS-15 02 Sep 19:50:54 19:55:21 13° 265° (W) 19:59:53 29.354 - 29.394 USB, Beacon 29.352 USB
